EW6527 Weather Reports


time (UTC)temp
C
wind
direction
speed
KPH
gust
KPH
rain 1hr
cm
rain 24hr
cm
rain mn
cm
humidity
%
barometer
mb
20260507033934 18 0 0.0 0.0 0.00 0.00 0.00 61 1018.1
20260507032935 18 0 0.0 0.0 0.00 0.00 0.00 60 1017.9
20260507031933 18 0 0.0 0.0 0.00 0.00 0.00 59 1017.9
20260507030934 18 0 0.0 0.0 0.00 0.00 0.00 58 1017.5
20260507025934 18 0 0.0 0.0 0.00 0.00 0.00 58 1017.7
20260507024934 18 0 0.0 0.0 0.00 0.00 0.00 58 1017.7
20260507024412 18 0 0.0 0.0 0.00 0.00 0.00 58 1017.7
20260507022934 18 0 0.0 0.0 0.00 0.00 0.00 61 1017.6
20260507021934 18 0 0.0 0.0 0.00 0.00 0.00 62 1017.6
20260507020934 18 0 0.0 0.0 0.00 0.00 0.00 63 1017.5
20260507020418 18 0 0.0 0.0 0.00 0.00 0.00 63 1017.4
20260507014934 18 0 0.0 0.0 0.00 0.00 0.00 62 1017.2
20260507013934 18 0 0.0 0.0 0.00 0.00 0.00 60 1017.3
20260507012934 18 0 0.0 0.0 0.00 0.00 0.00 61 1017.5
20260507011934 18 0 0.0 0.0 0.00 0.00 0.00 62 1017.4
20260507011907 19 0 0.0 0.0 0.00 0.00 0.00 63 1017.3
20260507005934 19 0 0.0 0.0 0.00 0.00 0.00 63 1017.3
20260507005412 19 0 0.0 0.0 0.00 0.00 0.00 61 1017.2
20260507003934 19 0 0.0 0.0 0.00 0.00 0.00 59 1017.3
20260507003420 19 0 0.0 0.0 0.00 0.00 0.00 58 1017.2
20260507001934 19 0 0.0 0.0 0.00 0.00 0.00 58 1017.2
20260507000935 19 0 0.0 0.0 0.00 0.00 0.00 59 1017.2
20260506235934 19 0 0.0 0.0 0.00 0.00 0.00 60 1017.2
20260506234934 18 0 0.0 0.0 0.00 0.00 0.00 61 1017.1
20260506233933 18 0 0.0 0.0 0.00 0.00 0.00 61 1017.2
20260506232932 19 0 0.0 0.0 0.00 0.00 0.00 61 1017.2
20260506231932 19 0 0.0 0.0 0.00 0.00 0.00 60 1017.2
20260506231415 19 0 0.0 0.0 0.00 0.00 0.00 60 1017.2
20260506225931 19 0 0.0 0.0 0.00 0.00 0.00 60 1017.3
20260506225410 19 0 0.0 0.0 0.00 0.00 0.00 60 1017.3
20260506224408 19 0 0.0 0.0 0.00 0.00 0.00 60 1017.5
20260506222930 19 0 0.0 0.0 0.00 0.00 0.00 60 1017.4
20260506221930 19 0 0.0 0.0 0.00 0.00 0.00 60 1017.4
20260506220930 19 0 0.0 0.0 0.00 0.00 0.00 61 1017.3
20260506215929 20 0 0.0 0.0 0.00 0.00 0.00 60 1017.4
20260506214930 20 0 0.0 0.0 0.00 0.00 0.00 61 1017.6
20260506213929 20 0 0.0 0.0 0.00 0.00 0.00 60 1017.7
20260506212929 20 0 0.0 0.0 0.00 0.00 0.00 60 1017.7
20260506211929 20 0 0.0 0.0 0.00 0.00 0.00 60 1017.8
20260506210929 20 0 0.0 0.0 0.00 0.00 0.00 59 1017.7
20260506205930 20 0 0.0 0.0 0.00 0.00 0.00 59 1017.6
20260506205424 20 0 0.0 0.0 0.00 0.00 0.00 60 1017.6
20260506204422 20 0 0.0 0.0 0.00 0.00 0.00 61 1017.4
20260506202930 20 0 0.0 0.0 0.00 0.00 0.00 69 1017.4
20260506201928 20 0 0.0 0.0 0.00 0.00 0.00 71 1017.4
20260506200929 20 0 0.0 0.0 0.00 0.00 0.00 70 1017.4
20260506195929 20 0 0.0 0.0 0.00 0.00 0.00 69 1017.4
20260506195420 21 0 0.0 0.0 0.00 0.00 0.00 68 1017.3
20260506193930 21 0 0.0 0.0 0.00 0.00 0.00 66 1017.2
20260506192929 21 0 0.0 0.0 0.00 0.00 0.00 65 1017.1
20260506191928 21 0 0.0 0.0 0.00 0.00 0.00 65 1017.1
20260506191418 21 0 0.0 0.0 0.00 0.00 0.00 65 1017.1
20260506185927 21 0 0.0 0.0 0.00 0.00 0.00 65 1017.1
20260506184927 21 0 0.0 0.0 0.00 0.00 0.00 66 1017.0
20260506183927 21 0 0.0 0.0 0.00 0.00 0.00 65 1016.9
20260506182927 21 0 0.0 0.0 0.00 0.00 0.00 63 1016.8
20260506182555 21 0 0.0 0.0 0.00 0.00 0.00 59 1016.8
20260506182359 21 0 0.0 0.0 0.00 0.00 0.00 58 1016.7
20260506175925 21 0 0.0 0.0 0.00 0.00 0.00 59 1016.7
20260506175412 21 0 0.0 0.0 0.00 0.00 0.00 57 1016.8
20260506173924 22 0 0.0 0.0 0.00 0.00 0.00 56 1016.8
20260506172924 22 0 0.0 0.0 0.00 0.00 0.00 59 1016.7
20260506172409 22 0 0.0 0.0 0.00 0.00 0.00 58 1016.6
20260506171411 21 0 0.0 0.0 0.00 0.00 0.00 58 1016.6
20260506170323 21 0 0.0 0.0 0.00 0.00 0.00 60 1016.6
20260506170108 21 0 0.0 0.0 0.00 0.00 0.00 60 1016.6
20260506163923 21 0 0.0 0.0 0.00 0.00 0.00 57 1016.6
20260506162922 22 0 0.0 0.0 0.00 0.00 0.00 56 1016.8
20260506161922 22 0 0.0 0.0 0.00 0.00 0.00 54 1016.9
20260506160922 22 0 0.0 0.0 0.00 0.00 0.00 53 1016.8
20260506155923 23 0 0.0 0.0 0.00 0.00 0.00 49 1017.0
20260506154923 24 0 0.0 0.0 0.00 0.00 0.00 50 1017.0
20260506153922 26 0 0.0 0.0 0.00 0.00 0.00 46 1016.9
20260506153357 27 0 0.0 0.0 0.00 0.00 0.00 34 1016.4
20260506151920 28 0 0.0 0.0 0.00 0.00 0.00 33 1016.4
20260506150921 28 0 0.0 0.0 0.00 0.00 0.00 33 1016.4
20260506145921 28 0 0.0 0.0 0.00 0.00 0.00 33 1016.5
20260506144919 28 0 0.0 0.0 0.00 0.00 0.00 32 1016.6
20260506143919 29 0 0.0 0.0 0.00 0.00 0.00 30 1016.6
20260506143358 30 0 0.0 0.0 0.00 0.00 0.00 29 1016.6
20260506141918 30 0 0.0 0.0 0.00 0.00 0.00 28 1016.7
20260506140919 31 0 0.0 0.0 0.00 0.00 0.00 27 1016.7
20260506135918 31 0 0.0 0.0 0.00 0.00 0.00 28 1016.5
20260506134919 31 0 0.0 0.0 0.00 0.00 0.00 28 1016.6
20260506133919 30 0 0.0 0.0 0.00 0.00 0.00 27 1016.8
20260506133406 31 0 0.0 0.0 0.00 0.00 0.00 28 1016.8
20260506131918 31 0 0.0 0.0 0.00 0.00 0.00 26 1017.0
20260506130917 31 0 0.0 0.0 0.00 0.00 0.00 27 1017.1
20260506125917 31 0 0.0 0.0 0.00 0.00 0.00 29 1017.0
20260506124914 30 0 0.0 0.0 0.00 0.00 0.00 29 1017.1
20260506123915 30 0 0.0 0.0 0.00 0.00 0.00 30 1017.2
20260506122915 29 0 0.0 0.0 0.00 0.00 0.00 33 1017.3
20260506121914 28 0 0.0 0.0 0.00 0.00 0.00 32 1017.3
20260506120914 28 0 0.0 0.0 0.00 0.00 0.00 34 1017.4
20260506115913 27 0 0.0 0.0 0.00 0.00 0.00 35 1017.4
20260506114912 27 0 0.0 0.0 0.00 0.00 0.00 34 1017.4
20260506114347 27 0 0.0 0.0 0.00 0.00 0.00 35 1017.5
20260506112910 27 0 0.0 0.0 0.00 0.00 0.00 36 1017.5
20260506112353 26 0 0.0 0.0 0.00 0.00 0.00 37 1017.6
20260506110910 26 0 0.0 0.0 0.00 0.00 0.00 37 1017.6
20260506105910 26 0 0.0 0.0 0.00 0.00 0.00 39 1017.6
20260506104911 25 0 0.0 0.0 0.00 0.00 0.00 40 1017.9
20260506104349 24 0 0.0 0.0 0.00 0.00 0.00 42 1017.7
20260506102908 23 0 0.0 0.0 0.00 0.00 0.00 43 1017.7
20260506101908 23 0 0.0 0.0 0.00 0.00 0.00 45 1017.7
20260506100916 23 0 0.0 0.0 0.00 0.00 0.00 45 1017.7
20260506095908 23 0 0.0 0.0 0.00 0.00 0.00 45 1017.8
20260506095350 22 0 0.0 0.0 0.00 0.00 0.00 48 1017.7
20260506093906 22 0 0.0 0.0 0.00 0.00 0.00 48 1017.7
20260506092906 22 0 0.0 0.0 0.00 0.00 0.00 48 1017.6
20260506091905 22 0 0.0 0.0 0.00 0.00 0.00 49 1017.7
20260506090906 21 0 0.0 0.0 0.00 0.00 0.00 50 1017.6
20260506085906 21 0 0.0 0.0 0.00 0.00 0.00 50 1017.7
20260506084906 21 0 0.0 0.0 0.00 0.00 0.00 50 1017.6
20260506083907 21 0 0.0 0.0 0.00 0.00 0.00 50 1017.6
20260506082912 21 0 0.0 0.0 0.00 0.00 0.00 50 1017.5
20260506082818 21 0 0.0 0.0 0.00 0.00 0.00 51 1017.4
20260506080905 21 0 0.0 0.0 0.00 0.00 0.00 51 1017.4
20260506071908 20 0 0.0 0.0 0.00 0.00 0.00 50 1017.1
20260506070904 20 0 0.0 0.0 0.00 0.00 0.00 50 1017.0
20260506061901 19 0 0.0 0.0 0.00 0.00 0.00 52 1016.8
20260506060902 19 0 0.0 0.0 0.00 0.00 0.00 53 1016.8
20260506050854 18 0 0.0 0.0 0.00 0.00 0.00 52 1016.7
20260506050338 18 0 0.0 0.0 0.00 0.00 0.00 51 1016.7
20260506044855 18 0 0.0 0.0 0.00 0.00 0.00 50 1016.6
20260506044332 18 0 0.0 0.0 0.00 0.00 0.00 49 1016.6
20260506042855 18 0 0.0 0.0 0.00 0.00 0.00 49 1016.4
20260506042253 18 0 0.0 0.0 0.00 0.00 0.00 48 1016.3
20260506042026 18 0 0.0 0.0 0.00 0.00 0.00 48 1016.4
20260506040334 18 0 0.0 0.0 0.00 0.00 0.00 49 1016.2
20260506034853 18 0 0.0 0.0 0.00 0.00 0.00 48 1016.2